This demonstration page uses our WeatherBlox Daily Observations layout. Learn more.

39.92423, -83.80882

Hourly Observations for September 10, 2020

Temp ( °F °C ) Dew Point ( °F °C ) Humidity (%) Winds ( mph kmh ) Pressure ( in mb ) Visibility ( mi km ) Precip ( " mm )
12:56 am 00:56 Clear 65 18.3 65 18.3 100 100 Calm 30.22 1023 10 16.0934 0 0
1:56 am 01:56 Clear 64 17.8 64 17.8 100 100 NE 3 6 30.22 1023 7 11.26538 0 0
2:56 am 02:56 Clear 63 17.2 63 17.2 100 100 ENE 3 6 30.2 1023 9 14.48406 0 0
3:56 am 03:56 Clear with Mist and Fog 63 17.2 63 17.2 100 100 Calm 30.2 1023 4 6.43736 0 0
4:56 am 04:56 Clear with Mist and Fog 62 16.7 62 16.7 100 100 Calm 30.21 1023 6 9.65604 0 0
5:14 am 05:14 Clear with Mist and Fog 61 16 61 16 100 100 Calm 30.22 1023 1.75 2.816345 0 0
5:23 am 05:23 Clear with Mist and Fog 63 17 63 17 100 100 Calm 30.21 1023 4 6.43736 0 0
5:56 am 05:56 Clear 63 17.2 63 17.2 100 100 Calm 30.22 1023 7 11.26538 0 0
6:24 am 06:24 Clear with Mist and Fog 63 17 63 17 100 100 Calm 30.21 1023 2 3.21868 0 0
6:38 am 06:38 Clear with Mist and Fog 63 17 63 17 100 100 N 3 6 30.22 1023 5 8.0467 0 0
6:56 am 06:56 Clear with Mist and Fog 62 16.7 62 16.7 100 100 Calm 30.22 1024 4 6.43736 0 0
7:56 am 07:56 Sunny 63 17.2 63 17.2 100 100 Calm 30.24 1024 10 16.0934 0 0
8:56 am 08:56 Sunny 69 20.6 69 20.6 100 100 Calm 30.24 1024 10 16.0934 0 0
9:56 am 09:56 Sunny 77 25 71 21.7 82 82 Calm 30.25 1024 10 16.0934 0 0
10:56 am 10:56 Sunny 80 26.7 71 21.7 74 74 VRB 3 6 30.25 1024 10 16.0934 0 0
11:56 am 11:56 Sunny 83 28.3 70 21.1 65 65 VRB 3 6 30.24 1024 10 16.0934 0 0
12:56 pm 12:56 Cloudy 84 28.9 70 21.1 63 63 NNW 7 11 30.23 1024 10 16.0934 0 0
1:56 pm 13:56 Cloudy 82 27.8 71 21.7 69 69 NNW 8 13 30.22 1024 10 16.0934 0 0
2:56 pm 14:56 Mostly Cloudy 84 28.9 72 22.2 67 67 N 12 19 30.21 1023 10 16.0934 0 0
3:56 pm 15:56 Mostly Cloudy 83 28.3 72 22.2 70 70 NE 13 20 30.2 1023 10 16.0934 0 0
4:56 pm 16:56 Mostly Cloudy 82 27.8 72 22.2 72 72 NNE 12 19 30.2 1023 10 16.0934 0 0
5:56 pm 17:56 Mostly Sunny 80 26.7 71 21.7 74 74 NNE 9 15 30.21 1023 10 16.0934 0 0
6:56 pm 18:56 Mostly Cloudy 79 26.1 71 21.7 77 77 NNE 8 13 30.22 1023 10 16.0934 0 0
7:29 pm 19:29 Cloudy 77 25 72 22 83 83 NNE 15 24 30.18 1022 10 16.0934 0 0
7:56 pm 19:56 Cloudy 74 23.3 71 21.7 91 91 NE 12 19 30.22 1023 10 16.0934 0 0
8:23 pm 20:23 Mostly Clear 72 22 72 22 100 100 NNE 10 17 30.19 1022 10 16.0934 0 0
8:56 pm 20:56 Clear 71 21.7 70 21.1 96 96 NNE 13 20 30.23 1024 10 16.0934 0 0
9:56 pm 21:56 Cloudy 69 20.6 69 20.6 100 100 NNE 10 17 30.24 1024 10 16.0934 0 0
10:07 pm 22:07 Cloudy 70 21 70 21 100 100 NNE 9 15 30.23 1024 10 16.0934 0 0
10:22 pm 22:22 Cloudy 70 21 70 21 100 100 NE 15 24 30.22 1023 10 16.0934 0 0
10:56 pm 22:56 Cloudy 67 19.4 67 19.4 100 100 NE 10 17 30.24 1024 10 16.0934 0 0
11:56 pm 23:56 Cloudy 66 18.9 66 18.9 100 100 NE 14 22 30.24 1024 10 16.0934 0 0

Powered by AerisWeather